Weather at Kingsville Naval Air Station

Public forecast

Using degrees Fahrenheit for public forecast. Weather courtesy of forecast.io.

Current aviation weather report (METAR) for Kingsville Naval Air Station

Retrieved 2020/11/30 08:56 UTC (51 minutes ago):

KNQI 300856Z AUTO 31007KT 10SM CLR 09/07 A3036 RMK AO2 SLP276 T00890067 53009

Aviation forecast (TAF) for Kingsville Naval Air Station

Forecast is more than 12 hours old.

Retrieved 2013/09/17 15:21 UTC (7 years ago):

TAF COR KNQI 171500Z 1715/1815 08010KT VCSH SCT025CB SCT045 BKN250 QNH2994INS TEMPO 1715/1719 VRB15G25KT 4800 -SHRA BKN020CB BECMG 1718/1719 09012G18KT VCSH SCT035CB SCT055 BKN250 QNH2989INS TEMPO 1719/1723 VRB15G25KT 3200 SHRA BKN015CB OVC055 BECMG 1722/1723 10014G20KT 9999 NSW SCT035 SCT060 BKN250 QNH2990INS BECMG 1803/1805 VRB06KT 9999 FEW020 SCT040 QNH2993INS TEMPO 1810/1814 4800 BR BKN015 T32/1719Z T24/1811Z COR 1517